Home   Weather   Lucknow   Past weeks

Flag for India Past Weather in Lucknow, Uttar Pradesh, India — Yesterday and Last 2 Weeks

Now
55 °F

Fog.


Feels Like: 55 °F
Forecast: 55 / 77 °F
Wind: 3 mph from North

Location: Lucknow / Amausi

Current Time: Dec 11, 2016 at 11:43:43 am

Latest Report: Dec 11, 2016 at 11:00 am


Visibility: 0 mi

Pressure: 29.98 "Hg

Humidity: 88%

Dew Point: 52 °F

Location of LucknowLocation

Past Weather in Lucknow — Graph

°F

Lucknow Temperature Yesterday

Maximum temperature yesterday: 64 °F (at 3:30 pm)
Minimum temperature yesterday: 50 °F (at 2:00 am)
Average temperature yesterday: 55 °F

High & Low Weather Summary for the Past Weeks

 TemperatureHumidityPressure
High82 °F (Nov 26, 2:30 pm)100% (Nov 27, 5:00 am)30.18 "Hg (Nov 27, 5:00 am)
Low50 °F (Dec 5, 2:00 am)30% (Nov 28, 2:30 pm)29.71 "Hg (Dec 2, 8:00 pm)
Average62 °F87%29.99 "Hg
* Reported Nov 26 9:30 am — Dec 11 10:00 am, Lucknow, Weather by CustomWeather, © 2016

Note: Actual official high and low records may vary slightly from our data, if they occured in-between our weather recording intervals... More about our weather records

Advertising

Lucknow Weather History for the Previous 24 Hours

Scroll right to see more
 ConditionsComfort  
Time TempWeatherWind HumidityBarometerVisibility
10:00 am
Sun, Dec 11
52 °FFog.2 mph100%29.98 "Hg0 mi
9:30 am52 °FFog.No wind100%29.98 "Hg0 mi
9:00 am52 °FFog.No wind100%29.98 "Hg0 mi
8:30 am52 °FFog.No wind100%29.98 "Hg0 mi
7:30 am52 °FFog.No wind94%29.92 "Hg0 mi
7:00 am52 °FFog.No wind100%29.92 "Hg0 mi
6:30 am52 °FFog.No wind100%29.92 "Hg0 mi
6:00 am52 °FFog.No wind100%29.89 "Hg0 mi
5:30 am52 °FFog.No wind100%29.89 "Hg0 mi
5:00 am52 °FFog.No wind100%29.89 "Hg0 mi
4:00 am52 °FFog.No wind100%29.89 "Hg0 mi
3:00 am52 °FFog.No wind100%29.92 "Hg0 mi
2:00 am52 °FFog.No wind100%29.92 "Hg0 mi
1:00 am52 °FFog.No wind100%29.95 "Hg0 mi
10:00 pm
Sat, Dec 10
54 °FFog.No wind100%29.98 "Hg0 mi
9:00 pm55 °FFog.No wind94%29.95 "Hg0 mi
8:30 pm55 °FFog.No wind100%29.95 "Hg0 mi
8:00 pm57 °FFog.No wind94%29.95 "Hg0 mi
7:00 pm57 °FFog.No wind94%29.92 "Hg1 mi
6:30 pm59 °FFog.No wind88%29.92 "Hg1 mi
6:00 pm59 °FFog.No wind88%29.92 "Hg1 mi
5:30 pm61 °FFog.No wind88%29.89 "Hg1 mi
4:30 pm64 °FFog.No wind78%29.89 "Hg1 mi
4:00 pm64 °FFog.No wind78%29.89 "Hg1 mi
3:30 pm64 °FFog.No wind78%29.89 "Hg1 mi
3:00 pm63 °FFog.No wind83%29.89 "Hg1 mi
2:30 pm63 °FFog.No wind83%29.92 "Hg1 mi
2:00 pm63 °FFog.No wind83%29.92 "Hg1 mi
1:30 pm61 °FFog.No wind88%29.92 "Hg1 mi
1:00 pm57 °FFog.No wind94%29.95 "Hg1 mi
12:30 pm54 °FFog.No wind100%29.95 "Hg1 mi
12:00 pm54 °FFog.No wind94%29.98 "Hg1 mi
11:30 am52 °FFog.No wind100%30.01 "Hg0 mi
11:00 am52 °FFog.No wind100%30.01 "Hg0 mi
Weather by CustomWeather, © 2016

See weather overviewHow to use our weather pages